This demonstration page uses our WeatherBlox Daily Observations layout. Learn more.

Left ArrowRight Arrow

Hourly Observations for September 14, 2018

Temp ( °F °C ) Dew Point ( °F °C ) Humidity (%) Winds ( mph kmh ) Pressure ( in mb ) Visibility ( mi km ) Precip ( " mm )
12:54 am 00:54 Clear 71 21.7 68 20 90 90 S 9 15 29.97 1015 10 16 N/A
1:54 am 01:54 Clear 70 21.1 68 20 93 93 S 9 15 29.98 1015 9 14 N/A
2:54 am 02:54 Clear 69 20.6 67 19.4 93 93 S 8 13 29.98 1015 9 14 N/A
3:54 am 03:54 Clear 69 20.6 67 19.4 93 93 S 7 11 29.98 1015 9 14 N/A
4:54 am 04:54 Clear 69 20.6 67 19.4 93 93 SSE 9 15 29.98 1015 8 13 N/A
5:54 am 05:54 Clear 69 20.6 67 19.4 93 93 S 7 11 29.98 1015 7 11 N/A
6:54 am 06:54 Clear 69 20.6 67 19.4 93 93 S 9 15 29.98 1015 7 11 N/A
7:54 am 07:54 Sunny with Mist and Fog 70 21.1 68 20 93 93 S 6 9 29.99 1016 5 8 N/A
8:54 am 08:54 Partly Cloudy 73 22.8 69 20.6 87 87 S 13 20 29.99 1016 7 11 N/A
9:54 am 09:54 Sunny 77 25 70 21.1 79 79 SSW 14 22 29.99 1016 9 14 N/A
10:54 am 10:54 Sunny 81 27.2 71 21.7 72 72 S 9 15 30.00 1016 10 16 N/A
11:54 am 11:54 Sunny 85 29.4 71 21.7 63 63 S 13 20 29.99 1016 10 16 N/A
12:54 pm 12:54 Sunny 88 31.1 71 21.7 57 57 S 16 26 29.98 1015 10 16 N/A
1:54 pm 13:54 Sunny 89 31.7 69 20.6 52 52 SSE 17 28 29.97 1015 10 16 N/A
2:54 pm 14:54 Sunny 90 32.2 68 20 48 48 S 21 33 29.95 1014 10 16 N/A
3:54 pm 15:54 Sunny 90 32.2 69 20.6 50 50 S 16 26 29.95 1014 10 16 N/A
4:54 pm 16:54 Mostly Sunny 89 31.7 68 20 50 50 S 15 24 29.96 1014 10 16 N/A
5:54 pm 17:54 Sunny 88 31.1 68 20 52 52 S 16 26 29.96 1015 10 16 N/A
6:54 pm 18:54 Sunny 85 29.4 68 20 57 57 S 9 15 29.97 1015 10 16 N/A
7:54 pm 19:54 Clear 79 26.1 68 20 69 69 S 8 13 29.98 1015 10 16 N/A
8:54 pm 20:54 Clear 76 24.4 68 20 77 77 S 6 9 30.00 1016 10 16 N/A
9:54 pm 21:54 Clear 74 23.3 68 20 82 82 S 7 11 30.01 1016 10 16 N/A
10:54 pm 22:54 Clear 71 21.7 67 19.4 87 87 SSE 7 11 30.02 1017 10 16 N/A
11:54 pm 23:54 Clear 72 22.2 67 19.4 84 84 S 6 9 30.03 1017 10 16 N/A

Powered by AerisWeather